• In Kazakhstan
  • List of Countries
  • For 7 days
  • Water Temperature
  • Satellite Maps
  • Weather Map
  • News
  • Weather Widgets
  • user-avatar
    Login

    Hourly Weather New Haven

    Today, 25 September, Monday

    Time Temperature Precipitation Wind Pressure Humidity
    00:00 +23°C° 0 mm 1 mps 761 mmHg 81%
    01:00 +24°C° 0 mm 1 mps 761 mmHg 79%
    02:00 +23°C° 0 mm 1 mps 761 mmHg 80%
    03:00 +23°C° 0 mm 1 mps 761 mmHg 81%
    04:00 +23°C° 0 mm 1 mps 761 mmHg 81%
    05:00 +24°C° 0 mm 1 mps 761 mmHg 80%
    06:00 +24°C° 0 mm 1 mps 762 mmHg 79%
    07:00 +24°C° 0 mm 1 mps 762 mmHg 77%
    08:00 +27°C° 0 mm 1 mps 762 mmHg 70%
    09:00 +29°C° 0 mm 1 mps 762 mmHg 63%
    10:00 +31°C° 0 mm 1 mps 762 mmHg 56%
    11:00 +32°C° 0 mm 1 mps 762 mmHg 54%
    12:00 +33°C° 0 mm 1 mps 762 mmHg 51%
    13:00 +34°C° 0 mm 1 mps 762 mmHg 48%
    14:00 +34°C° 0 mm 2 mps 761 mmHg 51%
    15:00 +32°C° 0 mm 2 mps 761 mmHg 54%
    16:00 +31°C° 0 mm 3 mps 761 mmHg 57%
    17:00 +28°C° 0 mm 2 mps 761 mmHg 65%
    18:00 +26°C° 0 mm 2 mps 761 mmHg 74%
    19:00 +24°C° 0 mm 2 mps 762 mmHg 83%
    20:00 +23°C° 0 mm 2 mps 762 mmHg 86%
    21:00 +22°C° 0 mm 1 mps 762 mmHg 89%
    22:00 +21°C° 0 mm 1 mps 762 mmHg 92%
    23:00 +21°C° 0 mm 1 mps 762 mmHg 93%

    Tomorrow, 26 September, Tuesday

    Time Temperature Precipitation Wind Pressure Humidity
    00:00 +21°C° 0 mm 1 mps 762 mmHg 94%
    01:00 +21°C° 0 mm 1 mps 762 mmHg 95%
    02:00 +21°C° 0 mm 1 mps 762 mmHg 95%
    03:00 +20°C° 0 mm 1 mps 762 mmHg 96%
    04:00 +20°C° 0 mm 1 mps 762 mmHg 96%
    05:00 +21°C° 0 mm 1 mps 762 mmHg 93%
    06:00 +21°C° 0 mm 1 mps 762 mmHg 91%
    07:00 +22°C° 0 mm 1 mps 762 mmHg 88%
    08:00 +25°C° 0 mm 1 mps 762 mmHg 79%
    09:00 +27°C° 0 mm 1 mps 762 mmHg 70%
    10:00 +29°C° 0 mm 1 mps 762 mmHg 61%
    11:00 +30°C° 0 mm 2 mps 761 mmHg 57%
    12:00 +31°C° 0 mm 2 mps 761 mmHg 54%
    13:00 +32°C° 0 mm 2 mps 761 mmHg 51%
    14:00 +31°C° 0 mm 2 mps 760 mmHg 54%
    15:00 +30°C° 0 mm 2 mps 760 mmHg 57%
    16:00 +29°C° 0 mm 2 mps 759 mmHg 60%
    17:00 +27°C° 0 mm 2 mps 760 mmHg 67%
    18:00 +25°C° 0 mm 2 mps 760 mmHg 75%
    19:00 +23°C° 0 mm 1 mps 760 mmHg 83%
    20:00 +22°C° 0 mm 1 mps 760 mmHg 86%
    21:00 +22°C° 0 mm 1 mps 760 mmHg 88%
    22:00 +21°C° 0 mm 1 mps 760 mmHg 91%
    23:00 +21°C° 0 mm 1 mps 760 mmHg 92%

    Day after tomorrow, 27 September, Wednesday

    Time Temperature Precipitation Wind Pressure Humidity
    00:00 +21°C° 0 mm 1 mps 760 mmHg 93%
    01:00 +20°C° 0 mm 1 mps 759 mmHg 94%
    02:00 +20°C° 0 mm 1 mps 759 mmHg 94%
    03:00 +20°C° 0 mm 1 mps 759 mmHg 94%
    04:00 +20°C° 0 mm 1 mps 759 mmHg 95%
    05:00 +21°C° 0 mm 1 mps 759 mmHg 92%
    06:00 +22°C° 0 mm 1 mps 759 mmHg 89%
    07:00 +21°C° 0 mm 2 mps 758 mmHg 87%
    08:00 +25°C° 0 mm 2 mps 758 mmHg 79%
    09:00 +27°C° 0 mm 2 mps 758 mmHg 72%
    10:00 +29°C° 0 mm 2 mps 758 mmHg 64%
    11:00 +30°C° 0 mm 2 mps 758 mmHg 62%
    12:00 +31°C° 0 mm 3 mps 757 mmHg 60%
    13:00 +31°C° 0 mm 3 mps 757 mmHg 58%
    14:00 +30°C° 0.2 mm 3 mps 756 mmHg 62%
    15:00 +30°C° 0.2 mm 2 mps 756 mmHg 66%
    16:00 +29°C° 0.2 mm 2 mps 756 mmHg 69%
    17:00 +27°C° 0 mm 2 mps 756 mmHg 77%
    18:00 +26°C° 0 mm 2 mps 756 mmHg 85%
    19:00 +24°C° 0 mm 2 mps 756 mmHg 92%
    20:00 +24°C° 0 mm 1 mps 756 mmHg 94%
    21:00 +23°C° 0 mm 1 mps 756 mmHg 95%
    22:00 +23°C° 0 mm 1 mps 755 mmHg 96%
    23:00 +23°C° 0 mm 1 mps 755 mmHg 96%

    28 September, Thursday

    Time Temperature Precipitation Wind Pressure Humidity
    00:00 +23°C° 0 mm 1 mps 755 mmHg 97%
    01:00 +22°C° 0 mm 1 mps 755 mmHg 97%
    02:00 +22°C° 0 mm 1 mps 754 mmHg 97%
    03:00 +22°C° 0 mm 1 mps 754 mmHg 97%
    04:00 +21°C° 0 mm 2 mps 754 mmHg 97%
    05:00 +21°C° 0 mm 2 mps 754 mmHg 91%
    06:00 +21°C° 0 mm 3 mps 754 mmHg 86%
    07:00 +21°C° 0 mm 4 mps 754 mmHg 80%
    08:00 +22°C° 0 mm 5 mps 754 mmHg 68%
    09:00 +23°C° 0 mm 5 mps 754 mmHg 56%
    10:00 +24°C° 0 mm 6 mps 754 mmHg 44%
    11:00 +26°C° 0 mm 6 mps 754 mmHg 42%
    12:00 +26°C° 0 mm 6 mps 753 mmHg 41%
    13:00 +27°C° 0 mm 6 mps 753 mmHg 39%
    14:00 +26°C° 0 mm 6 mps 753 mmHg 40%
    15:00 +26°C° 0 mm 6 mps 753 mmHg 42%
    16:00 +24°C° 0 mm 6 mps 753 mmHg 43%
    17:00 +23°C° 0 mm 6 mps 754 mmHg 46%
    18:00 +21°C° 0 mm 6 mps 755 mmHg 49%
    19:00 +19°C° 0 mm 5 mps 755 mmHg 52%
    20:00 +17°C° 0 mm 5 mps 756 mmHg 55%
    21:00 +17°C° 0 mm 5 mps 756 mmHg 57%
    22:00 +16°C° 0 mm 5 mps 756 mmHg 59%
    23:00 +15°C° 0 mm 4 mps 757 mmHg 62%

    29 September, Friday

    Time Temperature Precipitation Wind Pressure Humidity
    00:00 +14°C° 0 mm 4 mps 757 mmHg 65%
    01:00 +13°C° 0 mm 4 mps 757 mmHg 67%
    02:00 +13°C° 0 mm 4 mps 757 mmHg 70%
    03:00 +12°C° 0 mm 3 mps 757 mmHg 72%
    04:00 +12°C° 0 mm 3 mps 758 mmHg 75%
    05:00 +12°C° 0 mm 3 mps 758 mmHg 73%
    06:00 +12°C° 0 mm 3 mps 758 mmHg 71%
    07:00 +12°C° 0 mm 3 mps 758 mmHg 70%
    08:00 +14°C° 0 mm 3 mps 758 mmHg 61%
    09:00 +17°C° 0 mm 3 mps 758 mmHg 52%
    10:00 +19°C° 0 mm 3 mps 758 mmHg 43%
    11:00 +20°C° 0 mm 3 mps 757 mmHg 40%
    12:00 +21°C° 0 mm 3 mps 757 mmHg 37%
    13:00 +22°C° 0 mm 3 mps 756 mmHg 34%
    14:00 +22°C° 0 mm 3 mps 756 mmHg 36%
    15:00 +22°C° 0 mm 3 mps 756 mmHg 38%
    16:00 +22°C° 0 mm 3 mps 756 mmHg 40%
    17:00 +21°C° 0.3 mm 3 mps 757 mmHg 52%
    18:00 +19°C° 0.3 mm 3 mps 757 mmHg 64%
    19:00 +17°C° 0.3 mm 3 mps 757 mmHg 75%
    20:00 +16°C° 0.1 mm 3 mps 758 mmHg 78%
    21:00 +16°C° 0.1 mm 3 mps 758 mmHg 80%
    22:00 +14°C° 0.1 mm 3 mps 758 mmHg 82%
    23:00 +13°C° 0 mm 4 mps 758 mmHg 83%

    30 September, Saturday

    Time Temperature Precipitation Wind Pressure Humidity
    00:00 +12°C° 0 mm 4 mps 759 mmHg 84%
    01:00 +12°C° 0 mm 4 mps 759 mmHg 86%
    02:00 +11°C° 0 mm 4 mps 760 mmHg 85%
    03:00 +11°C° 0 mm 4 mps 760 mmHg 83%
    04:00 +10°C° 0 mm 4 mps 761 mmHg 82%
    05:00 +10°C° 0 mm 4 mps 762 mmHg 79%
    06:00 +10°C° 0 mm 4 mps 762 mmHg 76%
    07:00 +10°C° 0 mm 4 mps 763 mmHg 73%
    08:00 +12°C° 0 mm 5 mps 763 mmHg 63%
    09:00 +14°C° 0 mm 5 mps 764 mmHg 52%
    10:00 +15°C° 0 mm 5 mps 764 mmHg 42%
    11:00 +16°C° 0 mm 5 mps 764 mmHg 39%
    12:00 +17°C° 0 mm 5 mps 764 mmHg 37%
    13:00 +19°C° 0 mm 5 mps 764 mmHg 35%
    14:00 +17°C° 0 mm 5 mps 764 mmHg 35%
    15:00 +17°C° 0 mm 5 mps 764 mmHg 36%
    16:00 +18°C° 0 mm 4 mps 764 mmHg 37%
    17:00 +17°C° 0 mm 4 mps 765 mmHg 42%
    18:00 +14°C° 0 mm 4 mps 766 mmHg 47%
    19:00 +12°C° 0 mm 3 mps 766 mmHg 52%
    20:00 +12°C° 0 mm 3 mps 767 mmHg 55%
    21:00 +11°C° 0 mm 3 mps 767 mmHg 57%
    22:00 +10°C° 0 mm 2 mps 768 mmHg 60%
    23:00 +10°C° 0 mm 2 mps 768 mmHg 62%
    Show more